TimeAKST,TemperatureF,Dew PointF,Humidity,Sea Level PressureIn,VisibilityMPH,Wind Direction,Wind SpeedMPH,Gust SpeedMPH,PrecipitationIn,Events,Conditions,WindDirDegrees,DateUTC
12:00 AM,17.6,12.2,79,30.25,3.0,Calm,Calm,-,0.00,Snow,Light Snow,0,2013-11-22 09:00:00
12:07 AM,17.6,12.2,79,30.24,2.5,Calm,Calm,-,0.00,Snow,Light Snow,0,2013-11-22 09:07:00
12:29 AM,17.6,12.2,79,30.24,4.0,Calm,Calm,-,0.00,Snow,Light Snow,0,2013-11-22 09:29:00
12:53 AM,18.0,14.0,84,30.23,4.0,Calm,Calm,-,0.00,Snow,Light Snow,0,2013-11-22 09:53:00
1:05 AM,19.4,14.0,80,30.22,2.5,West,3.5,-,0.00,Snow,Light Snow,270,2013-11-22 10:05:00
1:21 AM,19.4,14.0,80,30.21,1.5,Calm,Calm,-,0.01,Snow,Light Snow,0,2013-11-22 10:21:00
1:33 AM,19.4,14.0,80,30.21,2.5,Calm,Calm,-,0.01,Snow,Light Snow,0,2013-11-22 10:33:00
1:53 AM,19.0,15.1,85,30.21,1.5,Variable,3.5,-,0.01,Snow,Light Snow,0,2013-11-22 10:53:00
2:00 AM,19.4,15.8,86,30.21,1.0,Calm,Calm,-,0.01,Snow,Light Snow,0,2013-11-22 11:00:00
2:05 AM,19.4,15.8,86,30.21,0.8,Calm,Calm,-,0.01,Snow,Light Snow,0,2013-11-22 11:05:00
2:18 AM,19.4,15.8,86,30.20,1.2,Calm,Calm,-,0.02,Snow,Light Snow,0,2013-11-22 11:18:00
2:41 AM,19.4,15.8,86,30.19,1.8,Calm,Calm,-,0.03,Snow,Light Snow,0,2013-11-22 11:41:00
3:03 AM,19.4,15.8,86,30.18,1.0,Calm,Calm,-,0.01,Snow,Light Snow,0,2013-11-22 12:03:00
3:12 AM,19.4,15.8,86,30.19,1.0,Calm,Calm,-,0.01,Snow,Light Snow,0,2013-11-22 12:12:00
3:27 AM,19.4,15.8,86,30.18,1.5,Calm,Calm,-,0.02,Snow,Light Snow,0,2013-11-22 12:27:00
3:53 AM,19.9,16.0,85,30.17,1.2,Calm,Calm,-,0.03,Snow,Light Snow,0,2013-11-22 12:53:00
4:00 AM,19.4,15.8,86,30.17,0.8,Calm,Calm,-,0.00,Snow,Light Snow,0,2013-11-22 13:00:00
4:30 AM,19.4,15.8,86,30.16,1.0,Calm,Calm,-,0.03,Snow,Light Snow,0,2013-11-22 13:30:00
4:53 AM,19.9,16.0,85,30.15,1.2,Calm,Calm,-,0.04,Snow,Light Snow,0,2013-11-22 13:53:00
5:07 AM,19.4,15.8,86,30.15,1.2,Calm,Calm,-,0.01,Snow,Light Snow,0,2013-11-22 14:07:00
5:25 AM,19.4,15.8,86,30.14,1.8,Calm,Calm,-,0.01,Snow,Light Snow,0,2013-11-22 14:25:00
5:53 AM,19.9,16.0,85,30.13,1.2,Calm,Calm,-,0.02,Snow,Light Snow,0,2013-11-22 14:53:00
6:42 AM,19.4,15.8,86,30.11,1.5,Calm,Calm,-,0.01,Snow,Light Snow,0,2013-11-22 15:42:00
6:53 AM,19.9,16.0,85,30.11,1.5,NNE,3.5,-,0.02,Snow,Light Snow,30,2013-11-22 15:53:00
7:29 AM,19.4,17.6,93,30.09,2.0,Calm,Calm,-,0.00,Snow,Light Snow,0,2013-11-22 16:29:00
7:51 AM,21.2,17.6,86,30.07,3.0,NE,3.5,-,0.00,,Overcast,50,2013-11-22 16:51:00
7:53 AM,21.0,17.1,85,30.07,3.0,Calm,Calm,-,0.00,,Overcast,0,2013-11-22 16:53:00
8:21 AM,21.2,17.6,86,30.06,6.0,Calm,Calm,-,0.01,,Overcast,0,2013-11-22 17:21:00
8:53 AM,23.0,19.0,85,30.04,10.0,Calm,Calm,-,0.01,,Overcast,0,2013-11-22 17:53:00
9:30 AM,28.4,23.0,80,30.01,9.0,Variable,3.5,-,0.00,Rain,Light Freezing Rain,0,2013-11-22 18:30:00
9:51 AM,35.6,32.0,87,30.01,7.0,Variable,6.9,-,0.00,Rain,Light Rain,0,2013-11-22 18:51:00
9:53 AM,37.0,33.1,86,30.00,8.0,SSW,16.1,26.5,0.00,Rain,Light Rain,200,2013-11-22 18:53:00
10:04 AM,41.0,35.6,81,29.99,9.0,SSW,20.7,34.5,0.00,Rain,Light Rain,210,2013-11-22 19:04:00
10:53 AM,44.1,37.0,76,29.96,10.0,SSW,26.5,39.1,0.00,,Overcast,210,2013-11-22 19:53:00
11:53 AM,44.1,36.0,73,29.93,10.0,SSW,28.8,40.3,0.02,,Overcast,210,2013-11-22 20:53:00
12:53 PM,44.1,36.0,73,29.94,9.0,SSW,24.2,46.0,N/A,,Overcast,200,2013-11-22 21:53:00
1:53 PM,43.0,37.0,80,29.93,9.0,SSW,25.3,44.9,0.00,Rain,Light Rain,210,2013-11-22 22:53:00
2:53 PM,42.1,36.0,79,29.92,6.0,SSW,26.5,38.0,0.02,Rain,Light Rain,210,2013-11-22 23:53:00
3:53 PM,42.1,36.0,79,29.93,10.0,SSW,19.6,32.2,0.02,Rain,Light Rain,210,2013-11-23 00:53:00
4:53 PM,41.0,36.0,82,29.92,10.0,SSW,23.0,34.5,0.01,Rain,Light Rain,210,2013-11-23 01:53:00
5:53 PM,41.0,36.0,82,29.90,10.0,SSW,20.7,33.4,0.00,,Overcast,200,2013-11-23 02:53:00
6:53 PM,41.0,36.0,82,29.88,10.0,SSW,21.9,29.9,0.00,,Overcast,200,2013-11-23 03:53:00
7:53 PM,39.9,36.0,86,29.87,10.0,SSW,18.4,28.8,0.01,,Overcast,200,2013-11-23 04:53:00
8:53 PM,39.9,35.1,83,29.85,9.0,SSW,21.9,28.8,0.02,Rain,Light Rain,200,2013-11-23 05:53:00
9:44 PM,39.2,33.8,81,29.84,8.0,SSW,17.3,25.3,0.02,Rain,Light Rain,210,2013-11-23 06:44:00
9:53 PM,39.0,34.0,82,29.84,8.0,SSW,15.0,23.0,0.02,Rain,Light Rain,200,2013-11-23 06:53:00
10:53 PM,37.9,34.0,86,29.82,7.0,South,9.2,16.1,0.05,Rain,Light Rain,190,2013-11-23 07:53:00
11:53 PM,36.0,33.1,89,29.79,7.0,NNE,3.5,-,0.06,Rain,Light Rain,30,2013-11-23 08:53:00